Find Starlink 4373

NORAD ID: 53219 Int'l Des: 2022-084 Owner: SPXS Country: US Constellation: starlink operational
LEOCIRCULARRETROGRADESSO

实时位置

正在加载3D地球...

关于 Starlink 4373

正在加载描述...

即将过境

Passes for default location (London). Set your location on the main map for personalized predictions.

高度历史

Loading altitude history...

两行轨道根数

1 53219U 22084AG 26105.91520061 .00000301 00000-0 25038-4 0 9990
2 53219 97.6046 167.8888 0000533 151.0958 209.0299 15.05648823204986
Epoch: Apr 15, 2026 • Age: 6 hours

当前状态

高度 559.1 km
速度 7.58 km/s
星下点 -25.96°S, 85.19°E
发射日期 Jul 22, 2022
运行时间 3.7 years
类型 internet

技术详情

分类 Payload
质量 297.00 kg
干质量 275.00 kg
总质量 297.00 kg
长度 0.20 m
直径 2.80 m
跨度 9.00 m
形状 Box + pan
制造商 SPXS
平台类型 Starlink
阶段状态 In Orbit
所有者/国家 SPXS/US

Most Searched